Regional Weather Roundup
Issued by NWS

Home | Current Version | Previous Version | Text Only | Print | Product List | Glossary On
Versions: 1 2 3 4 5 6 7 8 9 10 11 12 13 14 15 16 17 18 19 20 21 22 23 24 25 26 27 28 29 30 31 32 33 34 35 36 37 38 39 40 41 42 43 44 45 46 47 48 49 50
000
ASUS45 KPSR 282110
RWRAZ

ARIZONA REGIONAL HOURLY WEATHER ROUNDUP
NATIONAL WEATHER SERVICE PHOENIX AZ
200 PM MST WED JAN 28 2015

NOTE: FAIR INDICATES FEW OR NO CLOUDS BELOW 12,000 FEET WITH NO
SIGNIFICANT WEATHER AND/OR OBSTRUCTIONS TO VISIBILITY.

AZZ001>003-036-282200-
NORTHWEST ARIZONA

CITY           SKY/WX    TMP DP  RH WIND       PRES   REMARKS
BULLHEAD CITY  SUNNY     68  48  49 N22       30.15F
KINGMAN        SUNNY     61  43  51 N7        30.20F
$$

AZZ004>008-015-016-018-282200-
NORTH CENTRAL ARIZONA

CITY           SKY/WX    TMP DP  RH WIND       PRES   REMARKS
GRAND CANYON   MOSUNNY   51  23  33 CALM      30.24F
PRESCOTT       MOSUNNY   58  33  39 NE3       30.20F
FLAGSTAFF      SUNNY     54  19  25 SW3       30.24F
PAYSON         MOSUNNY   61  34  36 VRB5      30.21F
$$

AZZ009>014-017-282200-
NORTHEAST ARIZONA

CITY           SKY/WX    TMP DP  RH WIND       PRES   REMARKS
WINSLOW        SUNNY     57  37  47 NE3       30.22F
SAINT JOHNS    SUNNY     59  36  42 N7        30.19F
WINDOW ROCK    MOSUNNY   55  21  26 W6        30.23F
SHOW LOW       SUNNY     57  23  26 W6        30.24F
$$

AZZ023-282200-
GREATER PHOENIX AREA

CITY           SKY/WX    TMP DP  RH WIND       PRES   REMARKS
PHOENIX        PTSUNNY   73  48  41 W5        30.07F
BUCKEYE          N/A     70  52  52 SW3       30.10F
GLENDALE       PTSUNNY   73  48  40 VRB5      30.10F
LUKE AFB       NOT AVBL
DEER VALLEY    PTSUNNY   72  46  39 CALM      30.08F
SCOTTSDALE     MOSUNNY   72  49  44 VRB5      30.10F
MESA-FALCON    PTSUNNY   70  43  37 NW7       30.08F
MESA-GATEWAY   MOSUNNY   70  54  56 W8        30.11
CHANDLER       PTSUNNY   72  50  46 NW10      30.09F
$$

AZZ027-028-282200-
SOUTHWEST MARICOPA COUNTY AND PINAL COUNTY

CITY           SKY/WX    TMP DP  RH WIND       PRES   REMARKS
CASA GRANDE    SUNNY     70  54  56 W8        30.09F
GILA BEND      MOCLDY    71  51  49 VRB6      30.08F
$$

AZZ503-504-507>509-282200-
SOUTHEAST ARIZONA

CITY           SKY/WX    TMP DP  RH WIND       PRES   REMARKS
TUCSON         MOSUNNY   74  45  35 CALM      30.11F
DAVIS-MONTHAN  PTSUNNY   72  46  39 W2        30.09F
RYAN FIELD       N/A     73  48  40 N6        30.11F
NOGALES        MOSUNNY   74  38  27 N7        30.12F
SIERRA VISTA   PTSUNNY   70  37  30 NE6       30.15F
DOUGLAS        MOSUNNY   71  36  27 CALM      30.13F
SAFFORD        SUNNY     70  38  31 CALM      30.10F
$$

AZZ020-021-025-026-031-282200-
SOUTHWEST ARIZONA

CITY           SKY/WX    TMP DP  RH WIND       PRES   REMARKS
YUMA           PTSUNNY   74  53  48 VRB6      30.09F
$$

CAZ031-033-041-043-047-048-061-282200-
SOUTHERN CALIFORNIA

CITY           SKY/WX    TMP DP  RH WIND       PRES   REMARKS
DOWNTOWN L.A.  CLOUDY    74  42  31 CALM      30.07F
L.A. AIRPORT   CLOUDY    67  53  61 W9        30.08F
SAN DIEGO      CLOUDY    70  47  43 NW12      30.06F
BURBANK        PTSUNNY   71  39  31 CALM      30.08F
ONTARIO        CLOUDY    74  44  34 CALM      30.06F
RIVERSIDE      CLOUDY    72  42  34 N12G22    30.08F
PALM SPRINGS   MOSUNNY   73  42  32 CALM      30.13F
EL CENTRO NAS  PTSUNNY   71  50  47 NW5       30.11F
IMPERIAL       MOSUNNY   70  50  49 W3        30.11F
BLYTHE         MOSUNNY   70  50  49 N7        30.12F
NEEDLES        SUNNY     69  50  50 N12       30.14F
$$

NVZ020-UTZ003-282200-
SOUTHERN NEVADA-UTAH

CITY           SKY/WX    TMP DP  RH WIND       PRES   REMARKS
LAS VEGAS      PTSUNNY   61  45  55 S6        30.17F
SALT LAKE CITY PTSUNNY   49  36  61 N8        30.29F
$$

NMZ009-TXZ055-282200-
NEW MEXICO-WEST TEXAS

CITY           SKY/WX    TMP DP  RH WIND       PRES   REMARKS
ALBUQUERQUE    PTSUNNY   62  28  27 W13       30.17F
EL PASO        MOSUNNY   71  41  33 NE6       30.12F
$$


........................KEY........................
SKY/WX - SKY CONDITION/WEATHER
TMP    - TEMPERATURE IN FAHRENHEIT
DP     - DEW POINT IN FAHRENHEIT
RH     - RELATIVE HUMIDITY IN PERCENT
WIND   - DIRECTION AND SPEED IN MILES PER HOUR (MPH)
VRB    - VARIABLE WIND DIRECTION
PRES   - MEAN SEA LEVEL PRESSURE IN INCHES OF MERCURY
         F - FALLING PRESSURE   R - RISING PRESSURE
         S - STEADY PRESSURE
VSB    - VISIBILITY IN MILES
HX     - HEAT INDEX IN FAHRENHEIT
WCI    - WIND CHILL INDEX IN FAHRENHEIT
TC     - TEMPERATURE IN CELSIUS WHICH IS ALSO KNOWN AS
         TEMPERATURE IN CENTIGRADE
AFB    - AIR FORCE BASE
         LUKE AFB IS LUKE AIR FORCE BASE
         DAVIS-MONTHAN IS DAVIS-MONTHAN AIR FORCE BASE
NAS    - NAVAL AIR STATION
         EL CENTRO NAS IS EL CENTRO NAVAL AIR STATION
N/A    - NOT AVAILABLE


USA.gov is the U.S. government's official web portal to all federal, state and local government web resources and services.